FW9465 Weather Reports


Display with metric or nautical units.
time (UTC)temp
F
wind
direction
speed
MPH
gust
MPH
rain 1hr
in
rain 24hr
in
rain mn
in
humidity
%
barometer
mb
20260903170929 87 153 11.0 15.0 0.00 0.00 0.00 66 1013.3
20260903163928 86 153 7.0 10.0 0.00 0.00 0.00 68 1013.3
20260903162928 85 167 7.0 11.0 0.00 0.00 0.00 71 1013.5
20260903161927 84 152 7.0 9.0 0.00 0.00 0.00 73 1013.4
20260903160928 82 136 6.0 9.0 0.00 0.00 0.00 75 1013.4
20260903155944 82 147 3.0 5.0 0.00 0.00 0.00 76 1013.5
20260903154927 81 144 5.0 7.0 0.00 0.00 0.00 77 1013.5
20260903153931 81 139 4.0 5.0 0.00 0.00 0.00 77 1013.5
20260903152928 80 105 4.0 7.0 0.00 0.00 0.00 78 1013.4
20260903151943 80 102 4.0 7.0 0.00 0.00 0.00 78 1013.5
20260903151029 80 92 6.0 7.0 0.00 0.00 0.00 79 1013.6
20260903150030 80 95 6.0 9.0 0.00 0.00 0.00 79 1013.6
20260903144128 79 113 4.0 5.0 0.00 0.00 0.00 80 1013.6
20260903143143 79 143 3.0 5.0 0.00 0.00 0.00 80 1013.5
20260903142229 79 108 5.0 7.0 0.00 0.00 0.00 80 1013.3
20260903141229 79 149 4.0 7.0 0.00 0.00 0.00 78 1013.3
20260903140230 79 129 4.0 9.0 0.00 0.00 0.00 78 1013.3
20260903135327 79 157 4.0 4.0 0.00 0.00 0.00 79 1013.3
20260903134327 79 146 5.0 7.0 0.00 0.00 0.00 79 1013.2
20260903132428 78 146 6.0 8.0 0.00 0.00 0.00 82 1013.2
20260903131428 76 139 2.0 5.0 0.00 0.00 0.00 84 1013.3
20260903124445 75 123 2.0 4.0 0.00 0.00 0.00 86 1013.3
20260903123443 75 135 3.0 4.0 0.00 0.00 0.00 85 1013.2
20260903122445 75 112 0.0 2.0 0.00 0.00 0.00 84 1013.2
20260903121543 75 112 1.0 2.0 0.00 0.00 0.00 84 1013.2
20260903120529 75 123 2.0 4.0 0.00 0.00 0.00 84 1013.1
20260903115626 75 94 3.0 5.0 0.00 0.00 0.00 84 1013.1
20260903114628 75 90 1.0 4.0 0.00 0.00 0.00 84 1012.9
20260903113726 75 112 3.0 6.0 0.00 0.00 0.00 84 1012.9
20260903112728 75 112 2.0 4.0 0.00 0.00 0.00 82 1012.7
20260903111729 75 90 1.0 2.0 0.00 0.00 0.00 82 1012.9
20260903110729 75 90 0.0 0.0 0.00 0.00 0.00 81 1012.8
20260903105728 75 112 3.0 4.0 0.00 0.00 0.00 82 1012.7
20260903104828 75 112 2.0 2.0 0.00 0.00 0.00 81 1012.7
20260903103844 75 112 2.0 3.0 0.00 0.00 0.00 82 1012.7
20260903102827 75 112 2.0 3.0 0.00 0.00 0.00 83 1012.6
20260903101828 75 112 0.0 1.0 0.00 0.00 0.00 82 1012.7
20260903100927 75 112 1.0 2.0 0.00 0.00 0.00 83 1012.6
20260903095944 75 135 1.0 2.0 0.00 0.00 0.00 81 1012.8
20260903093928 75 157 0.0 0.0 0.00 0.00 0.00 82 1012.4
20260903092928 75 157 0.0 0.0 0.00 0.00 0.00 81 1012.4
20260903091928 75 157 0.0 0.0 0.00 0.00 0.00 80 1012.4
20260903090928 75 157 0.0 0.0 0.00 0.00 0.00 80 1012.4
20260903090027 76 157 0.0 0.0 0.00 0.00 0.00 79 1012.5
20260903085028 76 157 0.0 0.0 0.00 0.00 0.00 78 1012.6
20260903084126 76 157 0.0 0.0 0.00 0.00 0.00 77 1012.8
20260903082128 76 157 0.0 0.0 0.00 0.00 0.00 77 1012.8
20260903081126 76 157 1.0 1.0 0.00 0.00 0.00 76 1012.8
20260903080129 77 157 0.0 0.0 0.00 0.00 0.00 76 1012.8
20260903073231 78 157 0.0 1.0 0.00 0.00 0.00 74 1012.7
20260903072227 78 157 1.0 3.0 0.00 0.00 0.00 74 1012.8
20260903071226 78 156 4.0 5.0 0.00 0.00 0.00 73 1012.9
20260903070228 79 142 4.0 5.0 0.00 0.00 0.00 73 1013.0
20260903065227 79 140 4.0 5.0 0.00 0.00 0.00 72 1013.1
20260903064227 79 135 3.0 4.0 0.00 0.00 0.00 71 1013.1
20260903062228 80 143 4.0 7.0 0.00 0.00 0.00 70 1013.4
20260903055228 81 115 4.0 9.0 0.00 0.00 0.00 68 1013.4
20260903054227 81 142 7.0 11.0 0.00 0.00 0.00 67 1013.4
20260903053226 82 147 5.0 8.0 0.00 0.00 0.00 66 1013.3
20260903050228 83 144 6.0 8.0 0.00 0.00 0.00 65 1013.1
20260903045237 83 141 6.0 9.0 0.00 0.00 0.00 66 1013.0
20260903044237 84 145 7.0 10.0 0.00 0.00 0.00 64 1013.1
20260903043337 84 117 4.0 7.0 0.00 0.00 0.00 64 1013.1
20260903042339 84 121 3.0 5.0 0.00 0.00 0.00 64 1013.1
20260903041339 85 140 6.0 10.0 0.00 0.00 0.00 62 1013.1
20260903040355 85 139 4.0 6.0 0.00 0.00 0.00 60 1013.2
20260903034437 86 107 3.0 7.0 0.00 0.00 0.00 58 1013.1
20260903033536 86 138 4.0 6.0 0.00 0.00 0.00 58 1013.3
20260903032556 87 104 2.0 4.0 0.00 0.00 0.00 57 1013.1
20260903031638 87 134 5.0 11.0 0.00 0.00 0.00 58 1013.1
20260903030638 87 146 8.0 13.0 0.00 0.00 0.00 57 1013.0
20260903024738 88 145 7.0 11.0 0.00 0.00 0.00 55 1012.8
20260903023738 88 136 6.0 8.0 0.00 0.00 0.00 53 1012.6
20260903021738 89 142 5.0 9.0 0.00 0.00 0.00 51 1012.3
20260903020737 90 132 5.0 11.0 0.00 0.00 0.00 50 1012.2
20260903015737 90 142 6.0 12.0 0.00 0.00 0.00 47 1012.0
20260903014738 91 107 5.0 9.0 0.00 0.00 0.00 47 1012.0
20260903012738 92 97 7.0 12.0 0.00 0.00 0.00 47 1011.6
20260903011738 92 94 7.0 9.0 0.00 0.00 0.00 46 1011.5
20260903010755 93 87 11.0 15.0 0.00 0.00 0.00 43 1011.4
20260903005738 94 90 5.0 8.0 0.00 0.00 0.00 41 1011.2
20260903004836 95 85 3.0 5.0 0.00 0.00 0.00 40 1011.2
20260903003838 95 105 3.0 4.0 0.00 0.00 0.00 39 1011.2
20260903002841 95 87 4.0 6.0 0.00 0.00 0.00 39 1011.2
20260903001839 96 97 5.0 9.0 0.00 0.00 0.00 39 1011.2
20260903000837 96 80 9.0 10.0 0.00 0.00 0.00 39 1011.1
20260902235839 96 90 5.0 8.0 0.00 0.00 0.00 38 1011.0
20260902234837 96 69 6.0 10.0 0.00 0.00 0.00 39 1011.2
20260902233836 96 92 7.0 11.0 0.00 0.00 0.00 38 1011.2
20260902232854 97 70 4.0 7.0 0.00 0.00 0.00 37 1011.2
20260902231839 97 61 8.0 11.0 0.00 0.00 0.00 38 1011.0
20260902224938 97 39 5.0 9.0 0.00 0.00 0.00 39 1011.1
20260902223036 97 54 5.0 7.0 0.00 0.00 0.00 39 1011.0
20260902221054 97 88 9.0 13.0 0.00 0.00 0.00 39 1011.2
20260902220153 97 64 5.0 7.0 0.00 0.00 0.00 38 1011.4
20260902215236 97 32 3.0 4.0 0.00 0.00 0.00 37 1011.5
20260902214236 97 43 9.0 12.0 0.00 0.00 0.00 38 1011.5
20260902213254 97 34 7.0 9.0 0.00 0.00 0.00 38 1011.5
20260902210337 97 47 6.0 9.0 0.00 0.00 0.00 39 1011.9
20260902205339 97 64 9.0 13.0 0.00 0.00 0.00 37 1011.9
20260902203439 96 69 9.0 12.0 0.00 0.00 0.00 38 1012.2
20260902202453 96 61 7.0 10.0 0.00 0.00 0.00 40 1012.3
20260902201539 96 129 3.0 9.0 0.00 0.00 0.00 39 1012.4
20260902200636 96 18 7.0 11.0 0.00 0.00 0.00 39 1012.5
20260902195637 96 67 4.0 6.0 0.00 0.00 0.00 40 1012.6
20260902194637 96 63 3.0 5.0 0.00 0.00 0.00 40 1012.8
20260902193637 95 38 6.0 9.0 0.00 0.00 0.00 41 1013.1
20260902192735 95 88 8.0 13.0 0.00 0.00 0.00 40 1013.2
20260902191754 95 97 2.0 4.0 0.00 0.00 0.00 41 1013.5
20260902190738 95 34 11.0 14.0 0.00 0.00 0.00 42 1013.5
20260902185755 95 64 7.0 11.0 0.00 0.00 0.00 41 1013.7
20260902184838 95 346 6.0 9.0 0.00 0.00 0.00 41 1013.8
20260902183838 95 346 3.0 7.0 0.00 0.00 0.00 41 1014.1
20260902182837 95 37 5.0 8.0 0.00 0.00 0.00 41 1014.2
20260902181936 95 66 7.0 9.0 0.00 0.00 0.00 41 1014.4
20260902180036 95 63 5.0 8.0 0.00 0.00 0.00 41 1014.6
20260902175037 95 89 2.0 5.0 0.00 0.00 0.00 42 1014.8
20260902174036 94 97 5.0 9.0 0.00 0.00 0.00 42 1015.1
20260902173038 93 281 1.0 4.0 0.00 0.00 0.00 44 1015.2
20260902172038 93 33 8.0 9.0 0.00 0.00 0.00 44 1015.4